Время (UTC), дата Ветер
(°,м/с) 
Видим.   Явления Облачность Т
(°С)
Тd
(°С)
f(%) Тe
(°С)
Pmin
(гПа)
dP
(гПа)
Po
(мм)
O2
(г/м3)
Тmin Tmax R s Состояние
почвы
00 20.08.14 090 (В) 4000 м  дождь  10/10 210 м 
[Frnb|Ns]
+16.7 +14.9 89 +26  1014.4  -0.9  750  282           
03 20.08.14 тихо ()   4000 м  дымка{дождь}  10/10 150 м 
[St]
+16.7 +15.7 94 +27  1014  -0.4  750  281  +16.5    0.8    влажная 
06 20.08.14 140 (ЮВ) 1000 м  дымка{дождь}  10/10 180 м 
[St]
+17.3 +16.2 93 +30  1014.7  0.7  751  281           
09 20.08.14 290 (З) 4000 м  дымка  10/10 420 м 
[St]
+19.6 +16.6 83 +33  1014.2  -0.4  750  278           
12 20.08.14 320 (СЗ) 4000 м  дымка  10/10 480 м 
[St]
+19.6 +16.3 81 +32  1015.3  1.1  751  279           
15 20.08.14 350 (С) 20000 м    8/8 500 м 
[St]
+18.9 +16 83 +30  1015.6  0.2  751  280    +20.6       
18 20.08.14 тихо ()   10 км    ясно 
+17.5 +15.7 89 +27  1015.6  0.1  751  281           
21 20.08.14 тихо ()   10 км    ясно 
+16.7 +15.3 91 +26  1015.6  751  282           
00 21.08.14 тихо ()   10 км    ясно 
+15.7 +14.7 94 +24  1016.4  0.7  752  283           
03 21.08.14 тихо ()   10 км  дымка  10/0 верхняя 
[Cs]
+17.1 +16.2 94 +28  1016.3  752  282  +15.4        влажная 
06 21.08.14 350 (С) 20000 м    ясно 
+22.3 +15.9 67 +32  1016.1  752  277           
09 21.08.14 040 (СВ) 20000 м    1/1 1000 м 
[Cu hum]
+25.8 +12.5 44 +30  1015.2  -0.8  751  274           
12 21.08.14 360 (С) 20000 м    3/3 1000 м 
[Cu hum]
+26.9 +10 35 +28  1014.2  -0.9  750  274           
15 21.08.14 050 (СВ) 20000 м    1/1 1000 м 
[Cu hum]
+25.7 +10.3 38 +27  1013.8  -0.5  750  274    +27.3       
18 21.08.14 090 (В) 10 км    ясно 
+21.7 +10.6 49 +24  1014.2  0.2  750  278           
21 21.08.14 тихо ()   10 км    1/0 верхняя 
[Ci fib]
+17.1 +12.3 73 +21  1014.4  750  282           
00 22.08.14 тихо ()   10 км    ясно 
+15.2 +11.7 80 +19  1014.5  750  284           
03 22.08.14 тихо ()   20000 м    1/0 средняя 
[Ac lent]
+17.5 +13.5 77 +24  1014.4  750  281  +14.5        сухая 
06 22.08.14 120 (ЮВ) 20000 м    3/0 средняя 
[Ac cast]
+24.3 +12.7 48 +29  1014.1  750  275           
09 22.08.14 230 (ЮЗ) 20000 м    5/4 1000 м верхняя 
[Cu med, cong|Ci fib]
+26 +9.4 35 +26  1012.9  -1.1  749  274           
12 22.08.14 060 (СВ) 20000 м    6/6 1000 м 
[Cu med, cong]
+27 +8.9 32 +27  1012.2  -0.7  749  273           
15 22.08.14 100 (В) 20000 м    4/1 1000 м верхняя 
[Cu hum|Ci fib]
+25.6 +10 37 +27  1011  -1.2  748  274    +28.7       
18 22.08.14 140 (ЮВ) 10 км    ясно 
+20.5 +12.1 59 +25  1011.4  0.2  748  278           
21 22.08.14 тихо ()   10 км    ясно 
+17.1 +12.8 76 +22  1011.1  -0.4  748  281           
00 23.08.14 120 (ЮВ) 10 км    ясно 
+15.9 +12.6 81 +22  1010.5  -0.7  747  282           
03 23.08.14 120 (ЮВ) 20000 м    10/0 верхняя 
[Cs]
+17.4 +11.9 70 +23  1010.4  747  281  +15.8        сухая 
06 23.08.14 270 (З) 20000 м    8/3 1000 м средняя, верхняя 
[Cu med, cong|Ac lent|Ci fib]
+22.2 +12 52 +26  1010.3  0.1  747  276           
09 23.08.14 090 (В) 10 км  гроза, ливневой дождь  10/10 600 м кучево-дожд. 
[Cb calv]
+18.6 +15.4 82 +29  1011  0.5  748  279           
12 23.08.14 280 (З) 20000 м  {гроза}  10/6 600 м кучево-дожд., средняя, верхняя 
[Cb calv|Ac lent|Ci fib]
+21.8 +14.5 63 +30  1011.3  0.4  748  276           
15 23.08.14 320 (СЗ) 10 км    9/8 800 м средняя 
[Sc diur, vesp|Ac lent]
+19.2 +14.4 74 +28  1012.2  0.7  749  279    +22.7     
18 23.08.14 330 (СЗ) 10 км    ясно 
+16 +11.9 77 +21  1013.7  1.4  750  283           
21 23.08.14 340 (С) н/о    н/о 
+14.2 +11.8 85 +19  1014.7  0.9  750  285           
00 24.08.14 330 (СЗ) 10 км    ясно 
+12.8 +11.2 90 +17  1015.5  0.7  751  287           
03 24.08.14 300 (СЗ) 20000 м    1/0 верхняя 
[Ci fib]
+13.3 +11.2 87 +18  1016.5  752  287  +11.3        сухая 
06 24.08.14 320 (СЗ) н/о    н/о 
+17.8 +9.8 59 +20  1017.2  0.9  752  283           
09 24.08.14 320 (СЗ) 20000 м    6/5 1000 м верхняя 
[Cu med, cong|Ci fib]
+20.9 +6.6 39 +21  1017.4  0.3  753  281           
12 24.08.14 310 (СЗ) 20000 м    6/6 1000 м 
[Cu med, cong]
+21.2 +6.5 38 +21  1017.5  0.1  753  280           
15 24.08.14 350 (С) 20000 м    3/3 1000 м 
[Cu hum]
+20.3 +6.5 41 +20  1018.1  0.5  753  281    +22.1       
18 24.08.14 тихо ()   10 км    ясно 
+15.6 +8.4 62 +16  1019.4  1.1  754  286           
21 24.08.14 010 (С) 10 км    ясно 
+15.1 +7.7 61 +16  1020.1  0.7  754  287           
00 25.08.14 080 (В) 10 км    ясно 
+14.6 +7.5 62 +16  1020.8  0.6  755  287           
03 25.08.14 тихо ()   20000 м    6/0 верхняя 
[Ci fib]
+12.4 +8.7 78 +12  1021.8  0.9  756  290  +11.1        сухая 
06 25.08.14 100 (В) 20000 м    10/0 верхняя 
[Ci fib]
+19.4 +8.8 50 +20  1021.3  -0.1  755  283           
09 25.08.14 140 (ЮВ) 20000 м    8/6 1500 м верхняя 
[Cu hum|Ci fib]
+22.5 +6.1 35 +23  1020.8  -0.4  755  280           
12 25.08.14 140 (ЮВ) 20000 м    8/0 верхняя 
[Ci fib]
+22.8 +4.7 31 +23  1019.1  -1.6  754  280           
15 25.08.14 100 (В) 20000 м    10/0 средняя, верхняя 
[Ac trans|Ci fib]
+21 +7.7 42 +21  1018  -1.2  753  281    +23.6       
18 25.08.14 100 (В) 10 км    8/0 средняя 
[Ac lent]
+17.7 +8.1 53 +18  1017.5  -0.6  753  283           
21 25.08.14 100 (В) 10 км    8/0 средняя, верхняя 
[Ac lent|Ci fib]
+16.4 +8 58 +16  1016.1  -1.4  752  284           
00 26.08.14 120 (ЮВ) 10 км    9/0 средняя, верхняя 
[Ac lent|Ci fib]
+15.5 +8.6 63 +16  1015.3  -0.8  751  285           
03 26.08.14 100 (В) 10 км  в посл. час ливневой дождь{гроза}  10/0 средняя 
[Ac lent]
+13.2 +11.1 87 +17  1014.3  -1.1  750  286  +13.1      влажная 
06 26.08.14 100 (В) 4000 м  ливневой дождь  10/8 330 м кучево-дожд., средняя 
[Cb cap|Ac As]
+14 +12.2 89 +18  1012.1  -2.2  748  284           
09 26.08.14 130 (ЮВ) 10 км  гроза без осадков{ливн. осадки}  10/8 840 м кучево-дожд., средняя 
[Cb calv|Ac As]
+15.1 +13.1 88 +21  1011.7  -0.3  748  283           
12 26.08.14 150 (ЮВ) 10 км  в посл. час ливневой дождь  10/8 360 м средняя 
[Frnb|Ac As]
+16 +14.7 92 +25  1011.4  -0.3  748  282           
15 26.08.14 тихо ()   2000 м  дымка{гроза, ливн. осадки}  10/8 720 м средняя 
[Sc diur, vesp|Ac As]
+16.3 +15.2 93 +25  1010.4  -1  747  281    +16.5  11     
18 26.08.14 тихо ()   10 км  {гроза}  6/0 средняя 
[Ac trans]
+15.4 +14.5 94 +23  1010.1  -0.2  747  282           
21 26.08.14 290 (З) 10 км    3/0 средняя 
[Ac cast]
+14.2 +11.7 85 +19  1010.6  0.4  747  284           
00 27.08.14 290 (З) 10 км    ясно 
+14 +10.4 79 +17  1011.6  0.9  748  285           
03 27.08.14 тихо ()   20000 м    3/0 верхняя 
[Ci fib]
+12.3 +11.2 93 +15  1012  0.3  748  286  +11.1        влажная 
06 27.08.14 240 (ЮЗ) 20000 м    3/3 600 м верхняя 
[Cu hum|Ci fib]
+17.5 +12.8 74 +24  1012.8  1.1  749  281           
09 27.08.14 270 (З) 20000 м    8/3 600 м средняя, верхняя 
[Cu hum|As trans|Ci]
+20.4 +5.7 38 +20  1012.9  0.2  749  280           
12 27.08.14 230 (ЮЗ) 20000 м    8/5 600 м верхняя 
[Cu hum|Ci fib]
+21.5 +4 32 +22  1012.1  -0.7  749  279           
15 27.08.14 130 (ЮВ) 20000 м    8/0 средняя 
[Ac lent]
+18.8 +8.5 51 +20  1011.2  -1  748  281    +22       
18 27.08.14 130 (ЮВ) 10 км  слаб. дождь  10/10 240 м 
[Frnb|Ns]
+16.5 +9.1 62 +17  1010.7  -0.6  748  282           
21 27.08.14 130 (ЮВ) 10 км  {дождь}  10/0 средняя 
[As trans]
+16.7 +9.8 64 +19  1009.2  -1.5  746  282           
00 28.08.14 140 (ЮВ) 10 км  {дождь}  10/10 300 м 
[Ns]
+15.8 +11.2 74 +20  1007.3  -1.9  745  282           
03 28.08.14 130 (ЮВ) 10 км  слаб. дождь  10/10 960 м 
[Frnb|Ns]
+14.6 +12.2 86 +20  1007.5  0.2  745  283  +14.6      влажная 
06 28.08.14 200 (Ю) 20000 м  {дождь}  10/8 1000 м средняя 
[Sc|As op]
+15.6 +12.6 82 +21  1008.4  0.9  746  282  +14.4         
09 28.08.14 230 (ЮЗ) 20000 м    10/8 700 м средняя 
[Sc|As trans]
+17 +11.8 71 +22  1008.9  0.6  746  281           
12 28.08.14 150 (ЮВ) 4000 м  дождь  10/10 500 м 
[Frnb|Ns]
+15 +13.4 90 +22  1008.9  -0.1  746  282           
15 28.08.14 140 (ЮВ) 2000 м  дождь  10/10 270 м 
[Frnb|Ns]
+14.7 +13.7 94 +23  1007.8  -1.1  745  282    +17.6     
18 28.08.14 160 (Ю) 10 км  {дождь}  10/10 270 м 
[Frnb]
+14.5 +13.5 94 +22  1007.4  -0.3  745  282           
21 28.08.14 100 (В) 10 км    10/10 360 м 
[St]
+14 +13 94 +21  1005.8  -1.7  744  282           
00 29.08.14 110 (В) 10 км    9/0 средняя 
[Ac lent]
+13.7 +12.4 92 +19  1003.8  -1.9  742  282           
03 29.08.14 100 (В) 10 км    9/8 1320 м средняя 
[Sc|Ac lent]
+13.4 +12 91 +18  1001.9  -2  741  282  +13.4    0.8    влажная 
06 29.08.14 080 (В) 10 км  в посл. час дождь  10/10 180 м 
[Frnb|Ns]
+13.8 +12.7 93 +19  998.9  -2.9  739  281  +13.3         
09 29.08.14 090 (В) 4000 м  слаб. ливневой дождь, в посл. час гроза  10/10 180 м кучево-дожд. 
[Cb cap]
+14.7 +13.9 95 +22  995.7  -2  736  279           
12 29.08.14 110 (В) 10 км  в посл. час ливневой дождь{гроза}  10/10 700 м кучево-дожд. 
[Cb calv]
+17.3 +15.3 88 +28  992.4  -3.1  734  275           
15 29.08.14 310 (СЗ) 5-11{11}  1000 м  ливневой дождь{гроза}  10/10 300 м кучево-дожд. 
[Cb calv]
+14.7 +13.1 90 +20  994.5  1.9  735  279    +17.9  15     
18 29.08.14 300 (СЗ) 4-11{14}  10 км  в посл. час дождь{гроза, ливн. осадки}  10/10 360 м 
[Frnb|Ns]
+13.6 +12.2 91 +17  1002  7.3  741  282           
21 29.08.14 270 (З) 2{12}  10 км    3/0 средняя 
[Ac As]
+13.4 +10.5 83 +16  1004.5  2.4  743  283           
00 30.08.14 240 (ЮЗ) 10 км    3/0 верхняя 
[Ci fib]
+11.4 +9.5 88 +13  1006.2  1.6  744  286           
03 30.08.14 240 (ЮЗ) 10 км    9/0 средняя 
[Ac As]
+11.6 +10 90 +14  1007.2  745  286  +11.2      влажная 
06 30.08.14 250 (З) 10 км    10/10 240 м 
[St]
+13.4 +11.4 88 +17  1008.1  746  284           
09 30.08.14 280 (З) 20000 м    8/8 600 м 
[Cu med, cong]
+16.4 +11.7 74 +21  1008.7  0.7  746  281           
12 30.08.14 280 (З) 20000 м    6/5 1000 м средняя 
[Cu med, cong|Ac trans]
+18.4 +10.5 60 +21  1008.4  -0.2  746  280           
15 30.08.14 260 (З) 20000 м  в посл. час ливневой дождь  8/5 300 м кучево-дожд., средняя, верхняя 
[Cb cap|Ac As|Ci fib]
+16.1 +11.6 75 +20  1009.1  0.5  746  282    +19.2  0.3     
18 30.08.14 220 (ЮЗ) 10 км    ясно 
+13.2 +11.4 89 +17  1009.8  0.5  747  285           
21 30.08.14 тихо ()   10 км  в посл. час ливневой дождь  ясно 700 м 
+12.4 +11 91 +15  1009.8  747  286           
00 31.08.14 280 (З) 10 км  {ливн. осадки}  10/10 700 м кучево-дожд. 
[Cb cap]
+12.4 +10.5 88 +16  1010.7  0.9  747  286           
03 31.08.14 310 (СЗ) 10 км    10/10 540 м кучево-дожд. 
[Cb cap]
+12.3 +10.1 86 +14  1011.5  0.8  748  287  +12.2      влажная 
06 31.08.14 300 (СЗ) 20000 м    10/10 600 м 
[Sc diur, vesp]
+13 +10.5 85 +15  1012.7  1.2  749  286           
09 31.08.14 350 (С) 10 км    10/8 600 м кучево-дожд., средняя, верхняя 
[Cb cap|Ac lent|Ci fib]
+15.4 +10.6 73 +18  1013.4  0.8  749  284           
12 31.08.14 310 (СЗ) 20000 м  в посл. час ливневой дождь  10/8 600 м кучево-дожд., средняя, верхняя 
[Cb cap|Ac lent|Ci fib]
+14.2 +11.2 82 +18  1014.8  1.3  750  285           
15 31.08.14 290 (З) 10 км    10/8 600 м кучево-дожд., средняя, верхняя 
[Cb calv|Ac lent|Ci fib]
+15.1 +8.8 66 +16  1015.8  1.3  751  285    +17.2     
18 31.08.14 300 (СЗ) 10 км    3/0 средняя 
[Ac cast]
+12.9 +9.7 81 +15  1017.1  1.2  752  288           
21 31.08.14 330 (СЗ) 10 км    8/0 средняя 
[Ac trans]
+12.2 +9.8 85 +14  1018.5  1.3  753  289           
00 01.09.14 310 (СЗ) 10 км    ясно 
+11.3 +9.7 90 +13  1020.1  1.5  754  290           
03 01.09.14 350 (С) 20000 м    ясно 
+10.4 +9.1 92 +12  1022.1  1.9  756  292  +10.2        влажная 
Время (UTC), дата Ветер
(°,м/с) 
Видим.   Явления Облачность Т
(°С)
Тd
(°С)
f(%) Тe
(°С)
Pmin
(гПа)
dP
(гПа)
Po
(мм)
O2
(г/м3)
Тmin Tmax R s Состояние
почвы